Total_Precipitation_Accumulation
0.14 0.12 0.08 0.05 0.03 0.05 0.05 0.04 0.05 0.11 0.15 0.14 0.12 0.14 0.17 0.22 0.27 0.31 0.38 0.44 0.47 0.49 0.58 0.77 0.88 0.94 1.10
0.09 0.06 0.03 0.03 0.03 0.03 0.05 0.09 0.08 0.05 0.08 0.09 0.10 0.12 0.14 0.16 0.19 0.25 0.33 0.43 0.51 0.61 0.67 0.67 0.63 0.70 0.88
0.06 0.02 0.03 0.02 0.05 0.04 0.04 0.04 0.04 0.07 0.11 0.13 0.13 0.13 0.13 0.15 0.21 0.27 0.35 0.45 0.51 0.55 0.62 0.74 0.83 0.82 0.71
0.18 0.14 0.09 0.07 0.07 0.04 0.04 0.04 0.04 0.03 0.06 0.12 0.15 0.16 0.15 0.18 0.21 0.26 0.28 0.34 0.47 0.54 0.60 0.65 0.69 0.71 0.70
0.33 0.30 0.17 0.05 0.04 0.04 0.07 0.06 0.05 0.04 0.06 0.11 0.11 0.10 0.09 0.16 0.25 0.28 0.31 0.37 0.51 0.71 0.83 0.93 1.02 1.04 1.06
0.41 0.16 0.04 0.02 0.03 0.13 0.27 0.29 0.21 0.03 0.05 0.05 0.05 0.06 0.08 0.15 0.24 0.25 0.31 0.41 0.47 0.56 0.63 0.66 0.69 0.77 0.84
0.08 0.07 0.08 0.13 0.42 0.49 0.31 0.26 0.16 0.03 0.09 0.12 0.08 0.10 0.13 0.16 0.24 0.29 0.36 0.45 0.52 0.57 0.56 0.58 0.62 0.62 0.62
0.05 0.11 0.25 0.29 0.26 0.30 0.21 0.18 0.10 0.05 0.10 0.29 0.10 0.10 0.08 0.16 0.30 0.24 0.30 0.42 0.55 0.62 0.62 0.57 0.56 0.65 0.68
0.15 0.13 0.06 0.03 0.04 0.29 0.39 0.39 0.26 0.05 0.06 0.22 0.16 0.13 0.11 0.17 0.33 0.39 0.42 0.45 0.44 0.40 0.39 0.40 0.48 0.52 0.63
0.02 0.00 0.01 0.02 0.07 0.17 0.48 0.97 0.49 0.39 0.07 0.48 0.30 0.23 0.57 0.20 0.34 0.44 0.42 0.44 0.40 0.39 0.37 0.38 0.42 0.46 0.48
0.00 0.00 0.01 0.01 0.04 0.08 0.23 0.88 1.14 0.71 0.12 0.98 1.00 0.29 0.65 0.36 0.38 0.47 0.44 0.51 0.59 0.70 0.79 0.64 0.58 0.58 0.71
0.03 0.02 0.02 0.03 0.03 0.04 0.09 0.21 0.46 0.83 0.34 0.58 1.35 0.54 0.88 0.65 0.47 0.48 0.49 0.64 0.93 1.16 1.26 0.79 0.72 0.68 0.73
0.10 0.05 0.04 0.05 0.05 0.07 0.12 0.17 0.22 0.28 0.34 0.43 0.82 0.78 0.95 0.87 0.58 0.43 0.63 0.73 0.85 1.00 1.08 1.14 0.99 0.71 0.62
0.20 0.08 0.04 0.06 0.08 0.17 0.37 0.30 0.41 0.30 0.34 0.44 0.58 0.76 0.77 0.52 0.66 0.60 0.57 0.91 0.91 0.93 0.89 1.07 1.09 0.71 0.35
0.18 0.17 0.10 0.10 0.12 0.21 0.46 0.62 0.69 0.52 0.46 0.41 0.32 0.32 0.42 0.48 0.58 0.48 0.54 0.70 1.01 1.05 0.85 1.02 0.99 0.83 0.49
0.19 0.19 0.29 0.27 0.30 0.30 0.51 0.72 0.70 0.55 0.55 0.46 0.34 0.29 0.29 0.30 0.48 0.73 0.69 0.77 1.00 0.90 0.78 0.82 0.93 1.00 0.65
0.34 0.37 0.40 0.33 0.35 0.45 0.55 0.58 0.56 0.49 0.38 0.26 0.34 0.53 0.59 0.30 0.27 0.61 1.17 0.98 0.75 0.65 0.60 0.61 0.81 0.89 0.58